Location: Brickeys
(38.0845°N, 90.2107°W)
Time: 12:32:03
(UTC+00:00)

Daily predictions for brighter satellites

Satellite Brightness Start Highest point End
(mag) Time Altitude Azimuth Time Altitude Azimuth Time Altitude Azimuth
Cosmos 1933 4.3 12:01:33 18° NW 12:03:12 23° W 12:06:15 10° SW
Meteor 2-3 Rocket 4.1 12:00:23 10° SSW 12:05:49 43° WNW 12:11:15 10° N
DMSP B5D1-3 4.5 12:03:12 10° SSE 12:08:19 86° WSW 12:13:28 10° NNW
Cosmos 1814 Rocket 4.2 12:04:16 10° S 12:09:25 76° ESE 12:14:42 10° NNE
Meteor 1-26 Rocket 4.2 12:04:02 10° N 12:09:36 90° WNW 12:15:18 10° S
Cosmos 2219 Rocket 4.2 12:05:17 10° N 12:09:46 24° NE 12:14:12 10° ESE
NOSS 2-1 (C) 3.6 12:06:21 13° NW 12:09:48 65° WSW 12:15:06 10° SSE
Cosmos 2322 Rocket 3.2 12:06:37 10° N 12:12:06 46° ENE 12:17:31 10° SE
CBERS-1 3.9 12:08:25 10° N 12:13:30 76° WNW 12:18:33 10° SSW
COSMO-SKYMED 1 3.2 12:10:54 10° SSW 12:14:33 31° W 12:18:14 10° NW
Cosmos 2058 Rocket 3.0 12:11:12 10° NNW 12:15:37 72° W 12:19:58 10° S
Cosmos-2242 2.9 12:13:16 10° N 12:17:30 74° W 12:21:40 10° S
ATLAS 2AS CENTAUR R/B 4.0 12:11:09 10° S 12:17:54 47° ESE 12:24:29 10° NE
CZ-3C R/B 4.2 12:15:05 10° SW 12:20:42 29° SSE 12:47:47 10° ESE
COSMOS 2406 4.0 12:17:02 10° WSW 12:21:48 27° WNW 12:26:36 10° N
Thor Agena Rocket 3.5 12:18:43 10° NNE 12:23:47 88° WNW 12:28:48 10° SSW
SMAP 3.1 12:19:45 10° NNE 12:24:26 88° E 12:29:05 10° SSW
IRIDIUM 106 4.3 12:21:26 10° S 12:26:38 79° W 12:31:53 10° N
Landsat 7 3.9 12:25:58 10° NNE 12:30:39 81° ESE 12:35:18 10° S
COSMOS 2455 3.8 12:30:48 10° NW 12:35:53 29° WSW 12:40:56 10° SSW
Cosmos 2082 Rocket 3.9 12:33:57 10° WNW 12:35:54 12° NW 12:37:50 10° NNW
CENTAUR R/B 4.0 23:08:15 10° W 23:12:58 27° NW 23:18:38 10° NNE
Cosmos 2208 Rocket 4.4 23:10:16 10° N 23:15:07 40° ENE 23:19:59 10° SE
SL-16 R/B 3.3 23:11:14 10° N 23:17:17 55° WNW 23:23:16 10° SW
ATLAS CENTAUR R/B 2.3 23:16:24 10° N 23:18:35 17° NE 23:20:43 10° E
NOSS 2-2 (E) 3.8 23:15:06 10° SW 23:18:41 45° NW 23:21:42 10° NNE
Cosmos 1743 2.9 23:17:51 10° NNE 23:20:49 33° E 23:23:46 10° SE
BlueWalker 3 3.0 23:18:11 10° NNW 23:21:10 23° NNE 23:24:05 10° E
Cosmos 1697 Rocket 3.4 23:16:25 10° SSE 23:21:24 34° ESE 23:26:23 10° NE
Cosmos 1484 Rocket 3.8 23:18:24 10° S 23:21:48 45° W 23:25:11 10° NNW
Cosmos 1626 Rocket 3.4 23:19:48 10° N 23:24:08 77° E 23:28:24 10° S
SMAP 3.0 23:20:58 10° SSE 23:25:36 73° ENE 23:30:15 10° N
Cosmos 1606 Rocket 4.4 23:23:32 10° SSE 23:27:21 30° E 23:31:12 10° NNE
Cosmos 1461 2.8 23:24:33 10° SSW 23:28:18 56° ESE 23:32:06 10° NE
Gbstr 26 Del rocket 3.1 23:24:19 10° SSW 23:28:27 53° SE 23:31:38 14° ENE
Cosmos 2151 3.3 23:25:20 10° N 23:29:15 39° E 23:33:09 10° SSE
Lacrosse 4 Rocket 4.1 23:29:18 10° WNW 23:30:19 11° NW 23:31:20 10° NW
Landsat 7 3.7 23:27:05 10° SSE 23:31:40 63° ENE 23:36:17 10° N
IRS-1C 4.1 23:26:46 10° SSE 23:32:00 63° ENE 23:37:15 10° N
Meteor 1-20 Rocket 4.4 23:28:54 10° N 23:34:08 46° ENE 23:39:22 10° SSE
Cosmos 1544 Rocket 4.2 23:31:55 10° SSW 23:36:13 59° W 23:40:34 10° N
Thor Agena Rocket 4.0 23:33:07 10° S 23:38:19 69° WSW 23:43:31 10° NNW
Cosmos 1733 2.4 23:39:28 10° NNW 23:41:18 46° W 23:43:06 10° S
Okean 1-7 Rocket 3.9 23:38:07 10° N 23:42:15 40° ENE 23:46:21 10° SSE
SAR-Lupe-4 3.4 23:38:48 10° SSE 23:42:21 80° ENE 23:45:54 10° N
SAR-Lupe-1 4.0 23:46:16 10° SSE 23:49:51 85° ENE 23:53:28 10° NNW
BREEZE-M DEB (TANK) 3.2 23:50:45 10° WNW 23:51:55 15° NNW 23:52:22 14° N
Cosmos 1503 Rocket 4.1 23:47:45 10° SSW 23:53:00 84° WNW 23:58:16 10° NNE
Cosmos 1726 Rocket 4.0 23:49:19 10° SSE 23:53:43 45° E 23:58:09 10° NNE
